GFSGBSN_925_thetae_159.txt.gz
Theta_e
312 311 311 311 312 313 313 312 311 310 307 309 313 310 308 305 304 305 306 308 309 312 313 311 311 313 312 310 311 310 314 313 321 319 318 317 318 317 319 317 318 321 320 319 319 319 318
312 312 311 311 312 314 314 313 312 310 308 307 306 306 305 304 304 303 308 311 311 311 311 312 312 313 312 309 309 311 317 317 320 319 318 316 317 316 316 317 319 318 318 317 317 318 317
312 312 312 312 312 313 313 313 313 310 307 306 307 306 305 304 305 305 304 310 311 311 312 313 312 315 316 312 311 320 323 324 326 319 319 317 316 317 316 316 315 316 318 316 316 317 318
313 313 313 313 313 314 313 313 313 307 306 310 310 305 304 304 305 304 304 307 311 315 313 312 314 316 311 311 311 311 316 327 325 319 318 319 317 315 315 314 314 316 314 318 315 317 317
315 315 315 315 314 314 313 313 310 306 308 308 306 303 304 304 304 304 304 306 314 318 315 314 315 313 311 311 314 314 313 322 322 320 318 316 315 315 315 317 317 313 315 314 315 315 318
316 316 315 315 312 310 310 311 308 309 309 308 305 302 301 301 303 303 302 309 313 313 313 320 319 314 311 312 314 314 317 319 317 317 318 316 315 317 314 316 320 317 316 314 315 315 316
313 313 313 311 310 310 309 310 311 310 307 305 302 300 300 299 303 302 301 305 302 305 302 310 313 314 314 313 313 313 320 316 315 316 318 316 320 321 320 315 314 312 314 316 316 315 316
314 313 312 311 309 309 310 311 310 308 305 301 300 300 300 299 302 303 302 302 302 301 303 303 304 305 306 308 312 312 318 318 317 317 316 318 321 319 316 315 316 316 318 318 316 316 317
315 313 312 312 309 310 311 311 309 305 302 303 302 302 301 299 303 303 303 303 303 302 302 306 309 312 314 311 312 311 317 316 319 317 318 318 319 318 318 318 318 318 318 317 317 317 317
315 313 311 311 312 311 311 310 306 302 303 304 303 300 300 299 302 303 302 301 303 302 308 307 312 315 314 313 314 312 313 317 318 320 317 318 317 319 319 320 319 321 318 319 319 320 322
315 313 311 311 311 311 310 307 303 302 302 302 300 300 300 300 301 303 302 301 304 304 308 307 315 314 312 312 312 313 312 316 318 318 320 321 319 320 321 320 318 320 318 319 320 320 317
316 313 312 312 312 311 308 304 303 301 302 302 300 300 300 300 301 303 301 302 306 301 304 306 311 308 304 307 311 312 314 314 316 319 318 318 316 319 320 319 318 318 317 316 315 315 319
316 313 311 312 312 310 306 304 302 301 303 301 299 299 300 300 301 303 302 305 300 301 305 307 306 303 303 306 309 311 314 316 318 321 319 319 320 317 318 319 318 319 318 325 323 323 322
317 312 311 313 311 307 305 303 301 301 301 299 297 299 301 302 302 303 302 306 299 301 305 301 300 302 304 304 305 304 311 314 313 314 317 319 319 320 317 319 320 320 320 326 328 325 325
317 312 312 312 309 306 303 301 302 301 299 297 297 301 302 303 303 303 296 298 298 304 303 303 300 300 303 301 300 301 303 312 313 309 317 319 319 316 317 319 318 318 321 318 318 315 320
317 313 313 310 307 305 303 303 301 299 296 296 299 300 300 302 304 302 297 300 298 303 303 303 299 302 301 302 300 300 300 309 312 308 305 312 316 315 316 317 317 317 316 321 319 327 325
317 314 311 308 305 303 303 301 301 297 295 297 298 298 300 301 303 299 300 300 302 302 301 303 303 303 302 301 300 301 301 301 303 303 308 308 311 316 315 318 318 317 318 318 317 319 322
317 313 309 305 302 300 300 300 299 296 295 298 295 296 298 298 298 296 299 301 301 301 298 298 302 302 302 301 302 301 301 300 302 302 307 311 308 312 317 314 313 317 319 319 323 321 315
314 308 305 303 302 299 299 300 300 296 296 296 297 296 298 296 290 291 295 298 298 298 298 299 299 299 299 300 300 302 303 301 302 303 305 305 311 312 317 316 316 316 313 313 316 314 319
307 305 304 303 302 300 301 300 300 296 295 295 293 294 292 295 295 295 296 294 296 297 295 297 299 298 298 300 300 301 301 301 300 300 304 306 309 311 311 312 312 314 312 311 310 317 318
306 305 304 304 303 300 300 299 300 296 295 295 293 292 293 294 295 295 294 294 294 294 296 296 295 297 299 301 300 299 298 299 300 300 300 304 306 306 307 309 312 310 309 310 311 309 313
307 307 306 304 302 301 300 300 300 298 295 294 291 290 291 287 288 292 293 290 294 294 295 296 297 297 297 299 299 299 298 298 300 300 300 301 304 305 306 306 306 308 309 309 308 307 307
307 306 304 303 303 299 301 300 300 299 296 294 292 293 290 290 290 291 292 293 294 294 294 295 295 296 297 297 296 297 297 298 299 300 300 301 302 305 305 304 302 303 304 306 307 306 305
307 305 304 303 300 301 302 300 299 299 298 296 295 293 290 289 290 293 294 293 293 293 294 294 294 295 295 295 296 297 296 296 297 299 300 301 303 304 305 301 302 301 298 300 306 308 306
305 304 303 302 304 302 302 301 299 299 298 297 295 295 293 293 291 292 292 293 293 293 294 294 295 295 296 296 298 297 298 299 299 299 299 300 301 305 306 303 300 301 299 298 301 306 307
305 304 304 303 303 303 301 300 300 299 299 298 296 296 294 295 292 293 293 293 293 292 294 294 293 294 295 299 300 300 299 297 300 301 301 301 301 303 299 302 302 298 301 301 301 311 306
305 305 304 303 303 302 302 301 300 299 299 299 298 296 296 297 295 293 295 294 293 292 292 293 294 298 298 300 300 298 299 299 300 300 304 303 303 304 303 302 300 298 298 300 301 305 304
303 305 305 302 303 301 301 300 300 300 299 299 298 298 297 296 296 294 294 294 294 295 295 293 295 296 299 300 301 300 302 300 300 299 302 303 305 304 303 305 303 299 300 300 300 301 302
301 301 300 299 303 302 301 301 300 300 299 299 298 298 297 296 295 296 296 295 295 295 295 294 296 295 297 299 300 301 302 300 299 300 298 302 302 302 302 302 299 297 299 299 299 300 300

GFSGBSN_925_thetae_162.txt.gz
Theta_e
312 312 311 311 312 313 313 313 312 310 306 307 309 311 311 305 304 304 304 304 307 310 311 311 311 311 318 316 315 310 312 315 327 320 319 319 320 322 321 321 322 323 322 322 322 322 322
312 312 312 312 312 313 314 314 314 312 307 307 308 307 304 304 304 303 304 305 305 307 311 312 313 312 317 314 311 314 321 330 322 320 319 320 320 320 320 319 321 321 322 322 321 321 321
313 312 312 313 313 313 314 314 313 309 305 307 306 304 302 303 303 303 305 304 304 311 314 313 313 317 317 313 313 316 326 325 326 320 320 319 320 320 320 319 320 319 320 320 320 320 320
315 314 314 314 314 315 314 313 311 306 307 308 306 302 300 300 302 303 302 302 306 315 315 312 314 320 315 312 311 312 326 326 325 320 319 320 318 320 320 318 319 319 319 321 319 320 320
317 316 316 315 315 313 310 310 308 306 308 307 303 300 299 299 302 303 302 303 313 316 317 315 318 316 315 311 315 316 318 322 324 322 319 319 320 321 319 320 320 320 319 320 318 318 320
316 317 316 316 315 311 309 308 307 308 309 305 301 299 299 299 302 302 303 308 311 311 309 321 320 318 316 316 315 315 320 319 322 321 320 319 320 320 320 320 321 320 320 318 318 318 320
317 312 315 313 312 310 308 307 308 310 307 303 299 299 299 299 302 302 304 305 307 311 305 309 311 318 316 312 314 315 320 318 319 322 321 320 321 321 320 320 319 319 317 317 318 318 319
319 316 311 311 310 309 308 308 310 309 306 300 299 299 298 299 302 302 304 306 304 303 306 305 305 306 307 307 310 314 319 318 318 319 320 321 321 319 319 320 320 319 320 320 320 319 319
320 318 314 312 311 309 308 308 310 308 304 300 299 299 298 299 303 304 303 303 303 303 307 309 310 313 315 312 314 314 317 319 319 318 320 319 319 319 319 320 320 320 320 320 320 319 319
323 319 316 312 311 309 308 310 311 307 302 301 298 299 300 299 302 304 304 304 304 303 316 313 316 317 316 315 316 314 313 317 319 318 318 320 318 319 320 321 320 322 320 320 321 322 323
323 321 318 313 312 312 311 311 310 304 302 300 299 299 300 299 303 305 303 304 304 306 319 310 317 315 314 314 313 315 313 316 317 319 320 319 321 319 320 319 320 320 320 321 322 323 323
323 322 318 315 310 311 312 311 308 302 301 299 297 298 299 303 302 303 303 303 307 310 315 310 310 306 306 307 309 312 315 315 316 317 318 319 318 320 319 319 319 320 321 320 321 322 324
324 322 320 316 310 311 312 311 305 301 300 298 297 298 301 301 303 303 303 308 308 310 308 307 305 304 304 306 305 307 308 310 313 317 318 318 319 319 319 320 321 321 322 324 325 327 325
324 323 320 316 311 312 312 309 303 300 298 298 297 299 302 302 303 303 303 308 305 305 306 304 304 303 303 304 305 305 308 309 312 311 316 315 317 318 319 320 321 323 322 326 329 327 329
324 323 321 316 312 312 311 306 302 300 298 297 297 302 302 302 303 302 303 302 304 305 304 304 302 302 303 304 302 303 305 313 308 306 312 316 317 316 318 319 320 322 324 321 322 322 324
323 324 322 316 313 312 309 305 303 299 298 296 301 302 302 301 303 303 300 302 303 304 304 302 298 301 301 302 302 302 302 304 307 304 305 309 310 312 314 317 319 321 320 323 324 329 329
325 324 321 315 313 309 306 304 302 296 295 297 300 302 301 302 302 300 303 302 303 302 301 300 301 300 299 300 300 299 300 301 304 304 303 309 311 311 312 317 319 322 322 321 323 323 324
324 324 320 315 311 306 304 302 299 295 295 298 298 301 299 298 302 303 300 301 300 300 298 297 298 299 299 299 299 299 299 300 301 302 302 305 313 313 311 313 314 319 322 321 324 324 323
324 324 317 311 306 303 300 299 298 294 295 296 300 300 298 296 303 303 301 300 298 297 298 298 297 297 297 298 299 299 299 300 301 301 301 302 305 309 307 311 316 317 315 313 316 321 323
324 321 311 305 302 301 301 299 298 295 295 295 299 301 298 300 298 298 297 297 297 298 296 296 296 298 298 297 298 300 301 301 300 299 302 303 304 306 307 310 312 314 313 311 312 321 322
314 309 306 303 303 302 300 299 298 295 295 295 298 299 297 300 300 298 295 296 296 296 296 296 297 297 297 299 299 299 300 299 298 299 300 301 302 302 303 305 306 309 309 310 311 311 313
306 306 305 304 304 303 301 299 297 299 295 296 298 298 296 296 298 297 296 296 296 296 295 296 296 296 296 297 298 299 298 299 299 299 301 301 302 302 303 302 303 305 305 306 308 310 310
309 308 308 306 304 302 301 298 301 298 295 296 293 293 298 296 297 296 296 296 296 295 296 296 295 296 296 296 296 296 297 298 299 300 300 300 301 301 301 300 301 303 303 304 305 306 308
309 307 306 306 304 302 300 298 299 298 295 295 296 297 299 297 297 297 295 295 295 296 296 295 296 296 296 296 297 298 298 298 299 299 299 300 300 301 302 301 304 303 303 302 304 304 307
310 308 308 306 305 301 300 300 302 300 297 296 295 297 299 298 296 295 296 296 295 295 296 296 296 296 296 296 298 300 299 299 300 300 299 300 301 301 301 302 301 302 302 301 301 302 306
303 304 305 306 303 302 301 303 301 301 299 297 295 296 298 300 297 296 296 296 297 297 296 296 296 295 296 297 299 300 300 299 299 300 302 300 300 301 300 303 305 302 302 302 302 301 308
303 306 304 304 304 303 303 303 301 300 299 298 297 295 297 297 297 296 297 297 297 297 297 296 295 296 296 299 300 301 300 299 300 299 299 303 304 303 302 302 304 303 302 301 301 306 305
300 301 301 303 305 304 305 302 301 300 301 298 298 296 297 298 297 296 296 297 297 297 297 295 296 298 298 300 301 301 302 300 301 300 300 301 303 304 303 305 305 303 301 301 303 304 303
301 301 300 300 306 303 304 303 301 300 300 300 299 297 297 298 298 296 296 296 296 296 296 296 296 297 297 298 299 300 301 301 301 301 300 301 301 302 305 304 303 301 302 302 303 302 302

GFSGBSN_925_thetae_168.txt.gz
Theta_e
313 313 312 312 312 313 314 314 314 312 309 306 307 306 303 300 300 300 302 303 303 303 303 307 313 312 315 322 321 320 320 314 315 325 323 321 321 323 325 324 323 323 323 324 323 322 322
316 314 313 313 313 314 315 316 315 311 308 306 308 305 302 300 300 301 302 303 303 304 306 314 314 312 320 319 315 317 321 322 323 325 321 321 321 321 321 322 322 322 321 321 322 322 322
320 319 317 315 314 315 316 316 313 309 307 306 308 304 300 299 300 302 303 304 304 308 315 314 313 315 320 318 317 316 322 322 324 324 322 320 320 321 322 322 322 321 321 321 321 320 321
322 322 320 318 316 316 317 315 311 308 306 308 308 304 300 299 300 301 303 304 306 311 314 314 313 321 321 317 315 314 317 323 324 322 321 321 321 322 322 321 321 321 321 321 321 322 321
324 323 322 320 318 317 317 315 312 308 307 309 309 303 299 299 299 300 303 305 308 309 311 314 323 324 320 315 317 318 317 321 324 323 321 321 321 322 322 322 322 322 321 322 323 322 322
326 325 324 322 319 317 317 316 312 308 307 309 309 303 299 299 298 300 304 308 309 306 320 320 322 322 320 319 316 316 317 319 320 323 322 321 322 322 321 321 325 324 322 321 322 322 320
324 324 324 324 322 319 316 314 311 308 307 309 309 303 299 299 298 302 307 309 310 313 311 312 311 311 311 310 310 314 319 319 320 323 325 323 322 322 322 322 322 321 321 321 321 320 320
321 322 324 324 322 322 319 313 310 308 307 309 309 302 298 298 298 307 307 308 306 306 309 310 311 311 312 314 313 313 316 319 319 321 322 323 324 322 321 321 322 321 321 321 321 321 320
320 320 322 323 324 322 322 318 313 308 307 309 309 302 298 299 302 307 307 305 307 309 310 314 313 316 318 316 318 317 315 317 319 320 320 320 321 321 322 322 322 321 320 320 321 320 320
321 320 319 321 324 323 322 321 317 310 307 309 309 302 297 298 305 305 308 305 308 309 315 317 317 318 317 317 319 316 315 317 320 320 320 320 320 320 320 321 320 320 320 320 321 321 323
316 317 319 318 320 323 323 321 320 313 308 309 309 301 297 296 302 306 306 306 308 311 324 317 317 311 310 311 310 315 315 317 319 319 320 321 320 321 322 321 320 320 321 321 322 323 322
315 314 315 320 319 320 321 323 321 316 309 310 308 300 296 305 306 307 306 306 310 320 321 314 310 309 310 310 309 309 310 314 315 315 316 317 317 318 319 320 320 320 320 320 322 322 325
313 313 313 314 318 320 321 321 321 318 310 310 307 299 296 302 306 306 306 308 315 318 314 311 310 308 307 308 308 308 307 309 311 313 314 314 315 314 315 319 320 320 321 325 327 327 327
312 312 312 313 313 318 321 321 321 318 311 310 306 298 301 304 304 305 306 307 312 316 311 308 308 306 306 306 306 305 306 307 311 310 312 313 313 314 310 311 311 313 321 326 329 326 326
313 313 312 312 312 313 319 321 320 317 312 309 301 297 303 305 303 304 306 306 313 311 307 305 304 305 306 305 303 303 304 305 309 307 308 309 309 309 308 309 310 313 315 321 325 323 326
313 312 312 311 312 316 319 322 320 314 311 306 297 302 303 303 302 304 306 307 308 306 304 302 301 302 302 302 300 301 301 303 304 305 304 305 305 305 307 305 307 310 311 317 325 332 330
312 312 311 311 312 319 320 322 318 311 309 302 302 303 302 300 301 305 306 306 306 302 300 299 301 300 299 298 299 299 300 301 302 302 302 302 302 302 302 302 304 305 310 313 320 323 327
311 311 310 311 318 321 321 322 314 307 304 298 301 305 301 299 302 303 303 304 303 302 299 299 299 299 298 299 299 299 299 300 301 301 301 301 301 300 300 301 301 301 304 316 319 320 318
310 311 310 316 321 322 323 318 308 305 301 299 301 303 300 299 306 307 304 302 301 299 298 298 298 299 298 297 298 299 300 301 301 301 300 300 300 301 300 300 302 302 311 313 310 315 316
310 310 313 323 323 324 320 312 303 298 300 301 300 303 301 300 300 304 304 302 298 298 299 297 297 297 298 299 299 299 298 299 300 301 302 301 301 302 303 303 303 303 303 307 308 310 312
309 312 315 322 321 317 310 304 301 299 301 301 301 303 303 302 300 301 303 301 299 298 298 297 297 298 298 299 298 297 298 298 299 300 300 300 300 300 300 300 301 301 301 301 306 307 308
309 309 311 311 307 303 301 301 300 302 302 299 299 300 300 303 304 302 303 301 299 298 296 297 297 298 297 298 297 297 297 297 297 297 298 298 299 299 300 300 300 299 299 299 299 300 307
309 307 308 307 305 302 303 303 303 302 301 297 297 298 302 302 302 301 300 300 298 298 297 298 297 297 297 297 297 297 297 297 297 297 297 298 298 299 300 299 299 299 299 299 299 300 300
309 308 306 306 305 305 305 306 305 304 301 298 296 298 301 302 301 300 299 298 297 297 298 297 297 296 297 297 297 297 297 297 297 297 297 298 299 299 301 300 301 299 299 299 300 301 301
306 309 310 309 308 306 305 303 301 299 298 298 296 298 301 303 300 299 298 298 297 297 297 297 297 297 297 297 299 299 298 299 300 299 299 300 300 300 301 300 299 299 299 299 300 303 302
303 303 305 306 306 309 306 304 301 298 297 297 296 297 301 303 302 299 298 297 297 297 297 297 298 297 297 301 300 297 298 298 298 299 301 302 301 301 301 303 302 299 301 300 302 303 303
302 302 302 304 305 307 305 303 301 300 298 297 297 298 300 303 298 298 298 298 297 297 299 298 298 297 297 300 299 299 299 298 299 299 300 303 304 303 302 304 303 301 302 302 305 306 305
301 302 302 300 302 306 306 302 301 302 299 297 297 297 299 302 301 297 297 298 297 299 303 299 299 298 300 299 300 300 301 301 301 300 300 301 302 302 304 303 303 304 305 305 304 304 305
301 301 301 301 301 300 299 300 301 301 302 299 298 298 298 301 300 298 297 298 298 298 301 298 301 299 300 300 300 298 299 298 298 298 299 301 301 304 304 302 302 301 303 304 302 303 304

GFSGBSN_925_thetae_171.txt.gz
Theta_e
319 318 315 313 312 313 313 314 315 312 309 307 308 308 303 300 300 301 302 303 304 304 307 310 313 313 314 322 321 320 322 314 312 318 324 324 318 319 322 321 320 320 321 321 321 321 320
321 320 320 318 315 314 314 315 316 311 309 307 309 309 304 300 300 301 302 303 304 304 309 314 314 312 318 319 316 317 321 320 321 323 324 321 319 317 318 319 319 319 318 318 318 318 318
323 321 321 320 319 317 316 316 315 311 309 307 308 309 304 300 300 302 303 305 305 305 307 313 313 315 320 318 317 317 319 322 321 322 324 322 319 319 318 319 319 319 319 317 318 318 318
325 324 323 322 321 320 318 317 316 312 308 307 308 309 306 300 301 303 304 306 307 308 308 312 315 321 321 318 316 315 315 322 322 324 323 322 321 320 320 318 319 319 318 319 318 318 318
326 325 325 324 323 322 319 317 317 313 309 306 307 309 307 300 301 301 305 307 309 309 307 313 322 322 320 315 317 317 318 317 322 324 323 321 320 320 320 320 318 319 318 318 318 318 320
322 323 324 324 324 323 322 319 318 313 309 307 307 309 307 300 300 302 306 307 309 309 316 318 322 321 319 316 312 312 315 318 318 322 321 320 318 319 317 317 321 321 319 318 318 318 318
321 322 322 323 323 323 322 322 320 315 310 308 307 309 308 300 300 305 306 307 304 308 306 308 310 308 310 311 312 310 315 319 318 321 322 320 319 320 319 318 318 319 320 320 317 318 318
321 321 320 320 322 323 323 322 322 318 313 309 307 309 308 300 300 306 306 306 306 305 308 308 308 310 310 314 313 312 311 318 318 320 319 321 322 319 319 319 319 320 319 319 317 319 318
322 322 321 321 319 322 322 323 322 320 317 311 307 309 308 300 300 306 306 305 307 309 308 310 312 314 317 315 318 315 315 315 316 317 317 318 321 320 321 320 321 320 320 319 318 318 317
323 322 318 317 319 320 321 321 322 322 320 315 308 308 308 299 304 303 306 305 306 309 311 315 314 318 318 317 319 315 315 316 317 318 317 317 317 318 318 319 319 319 317 318 320 319 320
323 320 317 315 314 315 320 320 320 322 321 317 310 308 308 296 301 306 306 305 307 310 319 317 315 311 310 310 309 312 315 315 317 317 315 317 317 318 319 320 319 319 319 319 320 320 319
323 319 316 314 313 313 315 320 321 321 321 319 313 309 307 304 305 306 306 305 308 317 319 313 310 309 308 308 307 308 307 308 312 313 312 313 314 315 315 315 317 318 318 318 318 318 322
324 319 315 313 313 312 312 314 320 322 321 320 314 309 305 298 303 305 304 305 311 315 313 309 309 307 306 306 306 305 305 307 308 310 310 310 311 311 309 311 311 309 315 323 324 323 323
323 318 314 314 312 312 312 311 315 320 321 319 315 310 304 297 304 304 306 306 310 313 309 308 307 305 305 303 302 303 303 305 305 306 308 308 310 306 304 303 304 308 312 324 328 322 323
318 315 314 313 312 312 311 311 313 318 320 317 312 308 297 301 303 303 305 306 310 309 307 304 303 303 305 300 300 301 300 308 305 303 307 307 307 304 302 302 304 307 310 307 321 323 328
315 314 313 312 311 311 310 311 317 320 318 316 310 300 303 303 303 304 306 307 307 306 303 303 301 302 301 298 299 298 300 301 304 302 302 302 302 302 301 301 303 301 301 312 318 324 323
313 313 312 311 310 309 310 313 320 320 317 314 302 302 301 301 302 305 306 305 306 300 300 299 300 299 297 298 299 299 299 301 301 301 300 300 301 300 299 300 300 300 300 301 313 317 321
312 312 311 310 310 311 316 320 321 319 312 308 302 303 302 300 304 304 305 306 306 299 299 299 299 299 298 298 298 298 299 300 301 301 300 300 299 299 299 298 299 299 300 307 310 312 312
311 311 310 310 312 322 321 321 321 316 315 302 303 303 300 299 304 304 304 304 304 300 300 299 299 299 298 298 298 298 299 300 302 302 301 299 297 296 297 297 300 302 302 302 304 307 313
311 310 310 310 311 322 323 321 321 316 309 303 302 304 299 299 301 304 305 304 299 299 298 298 298 298 298 298 299 299 298 299 300 302 302 301 298 296 298 298 299 300 300 302 302 304 305
310 309 309 310 313 315 319 314 306 303 303 301 303 304 302 301 301 301 304 302 299 299 298 298 297 298 299 297 298 298 297 297 297 297 297 299 299 299 298 299 299 300 300 300 300 300 301
310 309 308 309 311 311 312 305 302 301 302 300 301 301 298 301 302 301 304 303 302 299 298 297 299 298 298 298 297 296 296 295 295 295 295 295 296 297 297 297 298 299 299 299 299 298 298
307 309 308 307 307 309 309 308 303 304 303 298 297 297 301 302 302 302 303 302 301 299 297 298 298 297 297 296 296 295 295 294 294 295 295 294 296 295 296 296 298 298 297 298 298 298 298
304 307 308 306 306 306 305 304 304 305 303 300 297 296 299 302 302 303 303 301 301 298 297 297 297 296 296 295 295 295 295 294 294 294 294 294 295 298 297 298 297 296 297 298 298 298 298
304 305 307 307 308 308 305 304 304 303 302 299 297 297 299 302 301 301 300 301 298 298 297 297 296 295 295 295 291 291 294 293 297 296 296 295 295 299 299 297 297 298 299 300 300 300 301
302 303 303 304 305 305 306 307 304 302 299 299 298 298 298 300 301 301 301 297 296 295 296 296 295 295 295 293 290 289 294 294 296 296 300 299 298 301 300 302 301 298 299 300 301 303 304
301 302 302 303 301 304 308 308 305 301 299 300 297 297 299 298 299 299 298 297 295 295 295 295 295 295 295 289 288 292 295 296 296 298 298 296 294 295 300 302 301 300 304 303 304 306 304
301 301 301 301 302 301 305 304 303 301 299 298 297 297 297 297 300 298 297 296 295 296 295 295 294 293 290 289 291 295 296 297 299 298 297 296 293 292 293 297 302 303 302 302 303 304 303
299 299 300 300 300 299 299 299 300 300 300 298 297 297 297 298 297 299 298 297 297 298 297 295 295 295 294 292 292 294 296 294 294 294 295 296 296 297 299 303 301 299 300 301 302 302 302

GFSGBSN_925_thetae_174.txt.gz
Theta_e
321 321 320 319 318 316 314 314 314 311 308 307 307 309 308 304 302 303 305 305 305 305 306 307 313 312 312 318 320 319 320 316 313 314 321 324 318 317 320 320 319 320 320 321 321 320 319
324 323 323 321 321 320 318 316 315 313 309 307 307 309 309 306 302 303 304 305 306 306 307 307 313 312 317 316 317 319 320 319 316 321 323 323 318 316 318 319 319 318 318 317 317 317 317
324 323 323 323 322 321 320 318 317 316 313 308 307 308 309 308 302 302 303 307 308 307 308 308 314 314 320 314 316 316 318 319 321 319 324 323 319 318 317 318 318 318 318 317 317 317 317
325 325 324 324 324 323 322 321 319 318 315 310 307 307 309 309 301 302 304 308 306 309 309 309 314 320 318 318 315 316 316 316 322 322 323 323 320 319 319 318 317 318 317 318 317 317 317
323 323 323 324 324 324 323 322 321 320 317 312 309 307 309 309 302 302 306 307 308 309 308 312 321 322 320 317 316 316 317 317 317 323 323 322 319 319 318 318 318 317 317 317 317 316 317
323 322 322 322 323 323 323 322 321 321 320 315 311 308 308 310 304 303 307 307 307 310 317 318 321 320 318 311 311 313 314 316 318 321 321 320 316 318 316 317 318 318 319 317 318 317 317
321 321 321 321 320 321 323 323 322 321 321 318 314 310 309 311 305 304 307 304 303 305 304 307 309 308 308 310 312 311 311 319 318 319 321 320 319 319 318 317 317 317 318 318 318 317 317
322 321 321 321 321 320 321 322 322 323 321 320 316 313 309 310 304 304 306 304 305 302 306 307 308 307 308 312 313 312 311 317 317 318 319 321 321 318 317 318 319 318 319 319 317 316 317
322 322 322 322 320 318 320 321 322 321 321 321 318 315 310 310 303 304 305 305 306 309 307 308 310 311 314 314 317 315 314 314 316 317 317 318 320 319 320 320 320 320 319 319 319 317 316
322 323 323 321 317 315 315 318 320 321 320 321 320 317 310 309 303 304 305 305 306 309 310 313 312 316 317 316 318 314 314 315 316 317 316 316 316 317 317 318 319 320 317 319 319 318 320
323 323 322 321 317 315 314 314 316 320 320 320 321 318 312 305 300 305 306 305 306 309 317 316 316 312 310 311 309 309 312 313 316 316 314 315 314 315 314 315 315 318 317 318 319 318 318
324 324 323 322 316 313 313 312 313 315 319 321 320 319 312 304 303 305 306 305 307 315 317 311 308 307 306 307 306 305 305 306 308 311 310 311 310 311 310 310 309 310 316 317 318 317 320
326 325 323 322 317 315 314 312 312 312 316 318 320 320 312 304 301 304 304 305 310 313 312 309 308 306 305 305 304 303 306 305 307 308 309 308 307 306 305 308 307 310 317 323 326 323 322
328 326 322 318 316 314 313 312 311 311 314 317 319 318 313 310 302 303 305 305 312 314 311 307 307 305 305 302 301 301 304 306 304 305 307 306 306 303 301 303 302 305 311 321 323 322 319
327 322 318 315 314 313 312 311 309 310 316 319 317 313 307 310 300 303 304 306 310 308 308 306 303 303 301 300 300 300 303 306 303 301 304 304 306 301 300 300 302 303 303 301 308 313 321
317 315 315 313 311 310 309 309 310 314 316 320 314 304 301 308 302 304 306 309 307 307 304 303 302 302 301 298 299 299 300 301 301 300 300 300 300 301 300 300 301 300 301 307 313 317 320
313 312 312 311 309 309 310 311 315 318 318 319 306 304 302 302 303 305 306 305 307 302 301 300 301 300 298 298 299 299 300 300 301 300 299 299 299 298 298 299 299 299 299 301 307 310 314
312 310 311 310 310 310 311 320 321 318 317 315 302 311 301 300 303 305 304 304 306 302 300 300 299 299 299 300 299 299 299 301 300 300 300 299 297 298 298 298 298 298 303 305 306 303 304
312 310 310 310 308 310 312 322 320 319 317 307 304 304 300 300 304 303 304 305 306 304 300 300 300 300 299 298 297 299 300 302 301 300 300 297 297 295 295 295 297 300 300 300 301 301 302
310 309 310 308 309 310 311 321 319 317 313 308 302 305 299 300 301 305 305 306 306 304 303 300 299 298 299 299 299 299 298 300 299 301 301 300 298 296 296 296 296 296 297 298 300 300 296
308 309 309 308 309 309 311 319 313 308 307 304 303 304 301 301 301 303 304 306 305 301 299 299 299 299 300 300 299 298 298 296 297 298 297 299 299 298 298 298 298 298 297 297 297 298 298
307 308 308 307 308 308 310 310 311 308 306 302 301 302 298 301 300 301 303 304 305 301 299 300 300 299 299 299 299 298 296 295 295 295 295 294 295 296 296 296 296 296 297 297 297 298 297
306 305 308 308 307 306 307 307 307 307 306 300 298 298 302 303 302 300 300 304 303 302 300 301 300 299 298 298 296 295 294 294 294 294 294 294 295 293 293 295 297 297 296 296 297 296 296
303 304 306 307 306 306 306 305 305 304 304 303 298 298 300 304 301 300 303 303 303 302 303 301 298 297 296 295 294 294 294 294 293 293 293 294 293 294 292 297 296 294 295 297 298 299 299
302 303 303 304 305 305 305 306 305 303 302 301 299 299 300 303 302 302 303 303 302 302 302 297 296 296 295 295 292 292 293 294 295 295 293 293 294 289 295 296 295 298 299 301 302 302 304
302 302 303 303 303 300 301 303 305 305 303 301 298 298 299 300 301 301 303 303 302 299 296 296 294 295 295 294 289 289 292 293 295 296 296 293 294 294 298 298 300 297 303 302 303 303 303
301 301 301 301 302 302 300 303 305 306 302 301 299 299 298 298 297 301 301 301 297 296 296 295 295 296 294 288 288 292 295 295 296 296 297 296 294 297 299 297 298 299 302 301 303 303 303
300 299 301 300 301 301 299 301 303 301 302 301 298 298 298 297 297 299 300 297 296 296 297 294 295 294 290 288 289 295 295 295 296 297 296 295 286 292 293 294 300 302 299 300 300 303 303
299 299 299 299 299 300 300 298 298 297 299 299 298 297 297 297 297 297 298 297 297 296 296 294 295 294 293 290 291 294 297 293 294 294 292 292 293 292 295 296 300 298 298 297 300 301 303